Location: Yecla
(38.6122°N, 1.1101°W)
Time: 00:47:55
(UTC+02:00)

ISS - Pass Details

Date: 01 April 2019
Orbit: 408 x 410 km, 51.6° (Epoch: 22 April)

Event Time Altitude Azimuth Distance (km) Brightness Sun altitude
Rises 21:45:31 0° 317° (NW) 2,336 1.2 -15.6°
Reaches altitude 10° 21:49:02 10° 357° (N) 1,473 -0.7 -16.3°
Maximum altitude 21:49:57 11° 13° (NNE) 1,423 -1.0 -16.5°
Drops below altitude 10° 21:50:51 10° 29° (NNE) 1,472 -1.1 -16.6°
Enters shadow 21:51:18 - 36° (NE) 1,530 -1.1 -16.7°
